Home > Weather > Rapid City > Past weeks

Flag for USA Weather for the Past 2 Weeks in Rapid City, South Dakota, USA

Now
44 °F

Passing clouds.


Feels Like: 38 °F
Forecast: 34 / 54 °F
Wind: 10 mph from North

Location: Ellsworth Air Force Base

Current Time: Apr 30, 2016 at 10:48:56 PM

Latest Report: Apr 30, 2016 at 9:58 PM


Visibility: 10 mi

Pressure: 30.25 "Hg (26.85 "Hg at 977m altitude)

Humidity: 60%

Dew Point: 30 °F

Location of Rapid CityLocation

Historic Weather in Rapid City — Graph

°F

Rapid City Temperature Yesterday

Maximum temperature yesterday: 45 °F (at 5:58 PM)
Minimum temperature yesterday: 36 °F (at 3:58 AM)
Average temperature yesterday: 40 °F

High & Low Weather Summary for the Past Weeks

 TemperatureHumidityPressure
High80 °F (Apr 22, 4:58 PM)100% (Apr 16, 8:58 AM)30.45 "Hg (Apr 16, 8:58 AM)
Low32 °F (Apr 17, 4:59 AM)25% (Apr 22, 4:58 PM)29.36 "Hg (Apr 23, 11:58 PM)
Average44 °F82%30.01 "Hg
* Reported Apr 15 7:58 PM — Apr 30 7:58 PM, Rapid City, Weather by CustomWeather, © 2016

Note: Actual official high and low records may vary slightly from our data, if they occured in-between our weather recording intervals... More about our weather records

Advertising

Rapid City Weather History for the Previous 24 Hours

Scroll right to see more
 ConditionsComfort  
Time TempWeatherWind HumidityBarometerVisibility
7:58 PM
Sat, Apr 30
47 °FPassing clouds.10 mph56%30.21 "Hg10 mi
6:58 PM50 °FPartly sunny.15 mph49%30.18 "Hg10 mi
5:58 PM51 °FScattered clouds.18 mph47%30.16 "Hg10 mi
4:58 PM51 °FScattered clouds.21 mph45%30.14 "Hg10 mi
3:58 PM51 °FBroken clouds.21 mph46%30.12 "Hg10 mi
2:58 PM50 °FOvercast.20 mph53%30.12 "Hg10 mi
1:58 PM48 °FMore clouds than sun.18 mph58%30.12 "Hg10 mi
12:58 PM47 °FMostly cloudy.20 mph60%30.12 "Hg10 mi
11:58 AM46 °FLight rain. Cloudy.12 mph71%30.13 "Hg10 mi
11:03 AM45 °FCloudy.16 mph71%30.09 "Hg10 mi
10:58 AM45 °FCloudy.13 mph68%30.14 "Hg10 mi
10:48 AM45 °FCloudy.15 mph71%30.09 "Hg10 mi
10:03 AM43 °FCloudy.16 mph87%30.09 "Hg10 mi
9:58 AM43 °FCloudy.12 mph87%30.14 "Hg10 mi
8:58 AM42 °FMore clouds than sun.12 mph96%30.13 "Hg10 mi
7:58 AM40 °FOvercast.12 mph100%30.12 "Hg10 mi
6:58 AM40 °FOvercast.14 mph100%30.10 "Hg10 mi
5:58 AM40 °FMore clouds than sun.10 mph100%30.09 "Hg10 mi
4:58 AM40 °FOvercast.13 mph100%30.08 "Hg10 mi
3:58 AM40 °FOvercast.12 mph100%30.08 "Hg10 mi
2:58 AM41 °FMostly cloudy.10 mph95%30.07 "Hg10 mi
2:03 AM41 °FMostly cloudy.7 mph93%30.03 "Hg10 mi
1:58 AM41 °FMostly cloudy.8 mph93%30.07 "Hg10 mi
12:58 AM41 °FOvercast.5 mph87%30.09 "Hg10 mi
11:58 PM
Fri, Apr 29
41 °FOvercast.5 mph87%30.10 "Hg10 mi
10:58 PM42 °FOvercast.5 mph87%30.10 "Hg10 mi
Weather by CustomWeather, © 2016

See weather overviewHow to use our weather pages